Jacksonville, FL

9:05 AM EDT on April 29, 2017 (GMT -0400)
Jacksonville International

Weather History for KJAX - July, 2012

Change the Weather History Date:

Thursday, July 26, 2012

  Actual Average Record
Temperature  
Mean Temperature 85 °F 83 °F  
Max Temperature 96 °F 92 °F 102 °F (1926)
Min Temperature 74 °F 73 °F 67 °F (2000)
Degree Days  
Heating Degree Days 0 0  
Month to date heating degree days 0 0  
Since 1 June heating degree days 0 0  
Since 1 July heating degree days 0 0  
Cooling Degree Days 20 18  
Month to date cooling degree days 465 450  
Year to date cooling degree days 1523 1383  
Since 1 June cooling degree days 859 899  
Growing Degree Days 34 (Base 50)    
Moisture  
Dew Point 74 °F    
Average Humidity 73    
Maximum Humidity 100    
Minimum Humidity 46    
Precipitation  
Precipitation 0.00 in 0.22 in 2.94 in (2002)
Month to date precipitation 2.91 5.54  
Year to date precipitation 34.41 27.55  
Snow  
Snow 0.00 in 0.00 in 0.00 in (2002)
Month to date snowfall 0.0 0.0  
Since 1 June snowfall 0.0 0.0  
Since 1 July snowfall 0.0 0.0  
Snow Depth 0.00 in    
Sea Level Pressure  
Sea Level Pressure 29.96 in    
Wind  
Wind Speed 7 mph (SW)    
Max Wind Speed 18 mph    
Max Gust Speed 24 mph    
Visibility 9 miles    
Events      
T = Trace of Precipitation, MM = Missing Value Source: NWS Daily Summary

Daily Weather History Graph

Daily Weather History Graph

Search for Another Location

Airport or City:

Trip Planner

Search our weather history database for the weather conditions in past years. The results will help you decide how hot, cold, wet, or windy it might be!

Date:

Astronomy

Jul. 26, 2012 Rise Set
Actual Time 6:41 AM EDT 8:24 PM EDT
Civil Twilight 6:15 AM EDT 8:51 PM EDT
Nautical Twilight 5:43 AM EDT 9:22 PM EDT
Astronomical Twilight 5:09 AM EDT 9:56 PM EDT
Moon 2:13 PM EDT (7/26) 12:26 AM EDT (7/26)
Length of Visible Light 14h 35m
Length of Day
13h 43m
First Quarter, 53% of the Moon is Illuminated
Jul 26
First Quarter
Aug 1
Full
Aug 9
Last Quarter
Aug 17
New
Aug 24
First Quarter

Hourly Weather History & Observations

Time (EDT) Temp. Heat Index Dew Point Humidity Pressure Visibility Wind Dir Wind Speed Gust Speed Precip Events Conditions
12:56 AM 75.0 °F - 72.0 °F 90% 29.96 in 10.0 mi Calm Calm - N/A   Scattered Clouds
1:56 AM 75.0 °F - 72.0 °F 90% 29.95 in 10.0 mi SSW 3.5 mph - N/A   Scattered Clouds
2:56 AM 75.0 °F - 73.0 °F 94% 29.94 in 10.0 mi SSW 3.5 mph - N/A   Scattered Clouds
3:56 AM 73.9 °F - 73.0 °F 97% 29.95 in 9.0 mi West 3.5 mph - N/A   Partly Cloudy
4:29 AM 73.4 °F - 71.6 °F 94% 29.95 in 7.0 mi Calm Calm - N/A   Mostly Cloudy
4:42 AM 73.4 °F - 73.4 °F 100% 29.95 in 7.0 mi Calm Calm - N/A   Scattered Clouds
4:56 AM 75.0 °F - 73.0 °F 94% 29.95 in 7.0 mi Calm Calm - N/A   Partly Cloudy
5:56 AM 75.2 °F - 73.4 °F 94% 29.95 in 6.0 mi SSW 4.6 mph - N/A   Partly Cloudy
6:56 AM 75.9 °F - 73.9 °F 94% 29.96 in 6.0 mi SSW 3.5 mph - N/A   Scattered Clouds
7:56 AM 78.1 °F - 75.0 °F 90% 29.98 in 8.0 mi SW 6.9 mph - N/A   Scattered Clouds
8:56 AM 81.0 °F 87.3 °F 75.9 °F 85% 29.99 in 10.0 mi SW 8.1 mph - N/A   Scattered Clouds
9:56 AM 84.9 °F 94.1 °F 75.9 °F 74% 29.99 in 10.0 mi WSW 8.1 mph - N/A   Scattered Clouds
10:56 AM 87.1 °F 97.3 °F 75.9 °F 69% 30.00 in 10.0 mi SW 8.1 mph - N/A   Scattered Clouds
11:56 AM 89.1 °F 100.2 °F 75.9 °F 65% 29.99 in 10.0 mi WSW 6.9 mph - N/A   Scattered Clouds
12:56 PM 91.9 °F 103.2 °F 75.0 °F 58% 29.99 in 10.0 mi Variable 5.8 mph - N/A   Scattered Clouds
1:56 PM 91.0 °F 100.4 °F 73.9 °F 57% 29.97 in 10.0 mi WSW 5.8 mph - N/A   Scattered Clouds
2:56 PM 95.0 °F 103.2 °F 72.0 °F 47% 29.95 in 10.0 mi West 5.8 mph - N/A   Scattered Clouds
3:56 PM 95.0 °F 103.2 °F 72.0 °F 47% 29.93 in 10.0 mi South 4.6 mph - N/A   Scattered Clouds
4:56 PM 95.0 °F 105.2 °F 73.9 °F 50% 29.92 in 10.0 mi SW 10.4 mph - N/A   Scattered Clouds
5:56 PM 93.0 °F 104.6 °F 75.0 °F 56% 29.92 in 10.0 mi South 10.4 mph - N/A   Scattered Clouds
6:56 PM 89.6 °F 98.2 °F 73.4 °F 59% 29.94 in 10.0 mi WSW 9.2 mph - N/A   Mostly Cloudy
7:56 PM 84.9 °F 93.3 °F 75.0 °F 72% 29.96 in 10.0 mi WSW 10.4 mph - N/A   Mostly Cloudy
8:56 PM 82.4 °F 89.5 °F 75.2 °F 79% 29.95 in 10.0 mi WSW 10.4 mph - N/A   Scattered Clouds
9:56 PM 80.1 °F 85.1 °F 75.0 °F 85% 29.96 in 10.0 mi SW 8.1 mph - N/A   Partly Cloudy
10:56 PM 79.0 °F - 73.9 °F 84% 29.97 in 10.0 mi SW 8.1 mph - N/A   Partly Cloudy
11:56 PM 78.1 °F - 73.9 °F 87% 29.97 in 10.0 mi SW 6.9 mph - N/A   Partly Cloudy